AAL9710 KMIA-TIST

Flight info

Callsign AAL9710
Flight time 2h 7m
Altitude 37000
Route KLADA2 BITAC Y290 JETSS
Aircraft A319/M-SDE3FGHIRWY/LB1

Departure

Time 2026-04-26 14:24
Airport Miami International Airport (KMIA)

Arrival

Time 2026-04-26 16:32
Airport Cyril E. King Airport (TIST)
Time Latitude Longitude Altitude Speed Heading
2026-04-26 13:58 25.79832 -80.26793 19 ft 0 kts 198°
2026-04-26 14:14 25.79843 -80.26789 19 ft 3 kts 198°
2026-04-26 14:14 25.79862 -80.26782 22 ft 3 kts 199°
2026-04-26 14:14 25.79881 -80.26775 19 ft 3 kts 201°
2026-04-26 14:14 25.79898 -80.26767 19 ft 2 kts 215°
2026-04-26 14:15 25.79907 -80.26758 21 ft 2 kts 255°
2026-04-26 14:15 25.79909 -80.26748 21 ft 1 kts 265°
2026-04-26 14:15 25.79909 -80.26747 20 ft 0 kts 264°
2026-04-26 14:17 25.79908 -80.26755 21 ft 3 kts 265°
2026-04-26 14:17 25.79905 -80.26794 21 ft 6 kts 265°
2026-04-26 14:18 25.79901 -80.26854 20 ft 10 kts 266°
2026-04-26 14:18 25.79902 -80.26927 21 ft 13 kts 283°
2026-04-26 14:18 25.79973 -80.26998 20 ft 15 kts 314°
2026-04-26 14:18 25.80041 -80.27088 23 ft 14 kts 320°
2026-04-26 14:19 25.80083 -80.27176 22 ft 14 kts 268°
2026-04-26 14:19 25.80078 -80.27293 21 ft 17 kts 267°
2026-04-26 14:19 25.80072 -80.27432 18 ft 20 kts 268°
2026-04-26 14:19 25.80066 -80.27591 17 ft 21 kts 268°
2026-04-26 14:20 25.80059 -80.27758 16 ft 22 kts 266°
2026-04-26 14:20 25.80050 -80.27937 12 ft 24 kts 267°
2026-04-26 14:20 25.80044 -80.28128 13 ft 24 kts 267°
2026-04-26 14:20 25.80036 -80.28309 15 ft 23 kts 268°
2026-04-26 14:21 25.80029 -80.28487 16 ft 24 kts 267°
2026-04-26 14:21 25.80022 -80.28661 21 ft 22 kts 268°
2026-04-26 14:21 25.80015 -80.28825 22 ft 21 kts 267°
2026-04-26 14:21 25.80008 -80.28996 20 ft 23 kts 266°
2026-04-26 14:22 25.80000 -80.29169 21 ft 23 kts 268°
2026-04-26 14:22 25.79994 -80.29349 18 ft 25 kts 267°
2026-04-26 14:22 25.79986 -80.29536 14 ft 23 kts 267°
2026-04-26 14:22 25.79978 -80.29701 14 ft 16 kts 267°
2026-04-26 14:23 25.79973 -80.29829 13 ft 18 kts 267°
2026-04-26 14:23 25.79980 -80.29972 13 ft 19 kts 281°
2026-04-26 14:23 25.80013 -80.30095 15 ft 11 kts 292°
2026-04-26 14:23 25.80067 -80.30118 16 ft 9 kts 37°
2026-04-26 14:24 25.80076 -80.30015 13 ft 26 kts 87°
2026-04-26 14:24 25.80097 -80.29463 16 ft 115 kts 87°
2026-04-26 14:24 25.80154 -80.28296 109 ft 177 kts 88°
2026-04-26 14:24 25.80253 -80.26947 999 ft 175 kts 86°
2026-04-26 14:25 25.80153 -80.25592 1808 ft 181 kts 109°
2026-04-26 14:25 25.79622 -80.24293 2270 ft 198 kts 118°
2026-04-26 14:25 25.78945 -80.22811 2605 ft 228 kts 118°
2026-04-26 14:25 25.78198 -80.21156 3144 ft 252 kts 118°
2026-04-26 14:26 25.77393 -80.19367 3940 ft 264 kts 117°
2026-04-26 14:26 25.76561 -80.17528 4973 ft 268 kts 118°
2026-04-26 14:26 25.75680 -80.15686 5916 ft 273 kts 120°
2026-04-26 14:26 25.74762 -80.13828 6832 ft 278 kts 120°
2026-04-26 14:27 25.73814 -80.11928 7668 ft 285 kts 120°
2026-04-26 14:27 25.72992 -80.09897 8496 ft 292 kts 110°
2026-04-26 14:27 25.72278 -80.07759 9343 ft 298 kts 110°
2026-04-26 14:27 25.71554 -80.05578 10132 ft 305 kts 110°
2026-04-26 14:28 25.70807 -80.03321 10496 ft 328 kts 110°
2026-04-26 14:28 25.69995 -80.00865 10795 ft 351 kts 110°
2026-04-26 14:28 25.69126 -79.98238 11057 ft 374 kts 110°
2026-04-26 14:28 25.68215 -79.95493 11625 ft 384 kts 109°
2026-04-26 14:29 25.67287 -79.92691 12324 ft 390 kts 109°
2026-04-26 14:29 25.66346 -79.89851 13050 ft 395 kts 109°
2026-04-26 14:29 25.65393 -79.86977 13772 ft 400 kts 109°
2026-04-26 14:29 25.64436 -79.84100 14399 ft 405 kts 109°
2026-04-26 14:30 25.63456 -79.81159 15055 ft 409 kts 109°
2026-04-26 14:30 25.62465 -79.78189 15719 ft 413 kts 109°
2026-04-26 14:30 25.61462 -79.75192 16367 ft 417 kts 108°
2026-04-26 14:30 25.60452 -79.72168 17024 ft 421 kts 108°
2026-04-26 14:31 25.59427 -79.69113 17683 ft 425 kts 109°
2026-04-26 14:31 25.58352 -79.66049 18344 ft 429 kts 109°
2026-04-26 14:31 25.57229 -79.62964 18909 ft 434 kts 110°
2026-04-26 14:31 25.56089 -79.59896 19439 ft 438 kts 110°
2026-04-26 14:32 25.54920 -79.56761 19956 ft 443 kts 110°
2026-04-26 14:32 25.53743 -79.53597 20450 ft 447 kts 110°
2026-04-26 14:32 25.52576 -79.50442 20924 ft 451 kts 110°
2026-04-26 14:32 25.51389 -79.47216 21409 ft 454 kts 110°
2026-04-26 14:33 25.50195 -79.43960 21885 ft 458 kts 110°
2026-04-26 14:33 25.48993 -79.40679 22343 ft 462 kts 110°
2026-04-26 14:33 25.47796 -79.37412 22789 ft 466 kts 110°
2026-04-26 14:33 25.46571 -79.34073 23239 ft 470 kts 110°
2026-04-26 14:34 25.45339 -79.30712 23655 ft 474 kts 110°
2026-04-26 14:34 25.44096 -79.27327 24034 ft 477 kts 110°
2026-04-26 14:34 25.42840 -79.23919 24430 ft 480 kts 110°
2026-04-26 14:34 25.41572 -79.20487 24825 ft 482 kts 110°
2026-04-26 14:35 25.40300 -79.17043 25207 ft 485 kts 110°
2026-04-26 14:35 25.39022 -79.13585 25584 ft 488 kts 110°
2026-04-26 14:35 25.37737 -79.10107 25955 ft 490 kts 110°
2026-04-26 14:35 25.36442 -79.06606 26316 ft 493 kts 110°
2026-04-26 14:36 25.35157 -79.03135 26663 ft 495 kts 110°
2026-04-26 14:36 25.33851 -78.99610 27014 ft 498 kts 111°
2026-04-26 14:36 25.32535 -78.96058 27355 ft 500 kts 111°
2026-04-26 14:36 25.31212 -78.92493 27695 ft 503 kts 111°
2026-04-26 14:37 25.29879 -78.88916 28028 ft 505 kts 111°
2026-04-26 14:37 25.28538 -78.85321 28408 ft 506 kts 111°
2026-04-26 14:37 25.27653 -78.82945 28719 ft 505 kts 111°
2026-04-26 14:37 25.26315 -78.79354 29202 ft 504 kts 111°
2026-04-26 14:38 25.24983 -78.75779 29696 ft 503 kts 111°
2026-04-26 14:38 25.23222 -78.71051 30298 ft 502 kts 111°
2026-04-26 14:38 25.21894 -78.67494 30704 ft 501 kts 111°
2026-04-26 14:38 25.20995 -78.65090 30994 ft 500 kts 111°
2026-04-26 14:39 25.19684 -78.61587 31405 ft 500 kts 111°
2026-04-26 14:39 25.18361 -78.58052 31824 ft 498 kts 112°
2026-04-26 14:39 25.17010 -78.54529 32254 ft 497 kts 113°
2026-04-26 14:39 25.15612 -78.51045 32680 ft 496 kts 114°
2026-04-26 14:40 25.14177 -78.47582 33111 ft 495 kts 115°
2026-04-26 14:40 25.12728 -78.44138 33545 ft 494 kts 115°
2026-04-26 14:40 25.11281 -78.40703 33977 ft 493 kts 115°
2026-04-26 14:40 25.09843 -78.37264 34357 ft 493 kts 115°
2026-04-26 14:41 25.08437 -78.33873 34704 ft 492 kts 115°
2026-04-26 14:41 25.07025 -78.30438 35045 ft 492 kts 115°
2026-04-26 14:41 25.05621 -78.26998 35383 ft 492 kts 115°
2026-04-26 14:41 25.04219 -78.23561 35707 ft 492 kts 115°
2026-04-26 14:42 25.02809 -78.20122 36030 ft 492 kts 115°
2026-04-26 14:42 25.01394 -78.16688 36346 ft 491 kts 115°
2026-04-26 14:42 24.99975 -78.13262 36661 ft 491 kts 115°
2026-04-26 14:42 24.98556 -78.09834 36969 ft 491 kts 115°
2026-04-26 14:43 24.97141 -78.06414 37274 ft 491 kts 116°
2026-04-26 14:43 24.95722 -78.02995 37577 ft 491 kts 116°
2026-04-26 14:43 24.94319 -77.99618 37866 ft 491 kts 116°
2026-04-26 14:43 24.92902 -77.96200 38154 ft 491 kts 116°
2026-04-26 14:44 24.91484 -77.92781 38429 ft 491 kts 116°
2026-04-26 14:44 24.90065 -77.89362 38697 ft 491 kts 116°
2026-04-26 14:44 24.88647 -77.85948 38908 ft 491 kts 116°
2026-04-26 14:45 24.85798 -77.79090 39019 ft 494 kts 116°
2026-04-26 14:45 24.82931 -77.72207 39016 ft 495 kts 117°
2026-04-26 14:46 24.80053 -77.65321 39016 ft 495 kts 117°
2026-04-26 14:46 24.77202 -77.58488 39018 ft 495 kts 117°
2026-04-26 14:47 24.74299 -77.51618 39017 ft 495 kts 118°
2026-04-26 14:47 24.71239 -77.44839 39018 ft 495 kts 120°
2026-04-26 14:48 24.68093 -77.38108 39022 ft 495 kts 120°
2026-04-26 14:48 24.64993 -77.31404 39028 ft 495 kts 119°
2026-04-26 14:49 24.61897 -77.24635 39030 ft 496 kts 119°
2026-04-26 14:49 24.58806 -77.17867 39031 ft 496 kts 119°
2026-04-26 14:50 24.55704 -77.11099 39036 ft 496 kts 120°
2026-04-26 14:50 24.52592 -77.04346 39032 ft 496 kts 120°
2026-04-26 14:51 24.49490 -76.97641 39031 ft 496 kts 120°
2026-04-26 14:51 24.46369 -76.90884 39029 ft 496 kts 120°
2026-04-26 14:52 24.43255 -76.84135 39029 ft 496 kts 120°
2026-04-26 14:52 24.40136 -76.77377 39031 ft 496 kts 120°
2026-04-26 14:53 24.37028 -76.70680 39031 ft 496 kts 120°
2026-04-26 14:53 24.33890 -76.63930 39032 ft 497 kts 120°
2026-04-26 14:54 24.30765 -76.57182 39031 ft 497 kts 120°
2026-04-26 14:54 24.27620 -76.50426 39034 ft 497 kts 120°
2026-04-26 14:55 24.24465 -76.43686 39030 ft 497 kts 120°
2026-04-26 14:55 24.21334 -76.36989 39032 ft 497 kts 120°
2026-04-26 14:56 24.18179 -76.30239 39033 ft 498 kts 120°
2026-04-26 14:56 24.15024 -76.23499 39030 ft 498 kts 120°
2026-04-26 14:57 24.11863 -76.16749 39029 ft 498 kts 120°
2026-04-26 14:57 24.08719 -76.10055 39026 ft 498 kts 120°
2026-04-26 14:58 24.05540 -76.03314 39028 ft 498 kts 120°
2026-04-26 14:58 24.02362 -75.96570 39030 ft 499 kts 120°
2026-04-26 14:59 23.99187 -75.89821 39031 ft 499 kts 120°
2026-04-26 14:59 23.96019 -75.83125 39029 ft 499 kts 121°
2026-04-26 15:00 23.92832 -75.76380 39033 ft 499 kts 120°
2026-04-26 15:00 23.89640 -75.69635 39033 ft 500 kts 121°
2026-04-26 15:01 23.86435 -75.62899 39031 ft 500 kts 121°
2026-04-26 15:01 23.83262 -75.56205 39031 ft 500 kts 121°
2026-04-26 15:02 23.80060 -75.49465 39029 ft 500 kts 121°
2026-04-26 15:02 23.76846 -75.42730 39024 ft 500 kts 121°
2026-04-26 15:03 23.73637 -75.35998 39021 ft 500 kts 121°
2026-04-26 15:03 23.70446 -75.29303 39030 ft 500 kts 121°
2026-04-26 15:04 23.67226 -75.22583 39035 ft 500 kts 121°
2026-04-26 15:04 23.64003 -75.15855 39032 ft 500 kts 121°
2026-04-26 15:05 23.60781 -75.09134 39029 ft 500 kts 121°
2026-04-26 15:05 23.57549 -75.02410 39029 ft 500 kts 121°
2026-04-26 15:06 23.54343 -74.95733 39023 ft 500 kts 121°
2026-04-26 15:06 23.51110 -74.89022 39027 ft 500 kts 121°
2026-04-26 15:07 23.46254 -74.78950 39029 ft 500 kts 121°
2026-04-26 15:07 23.43011 -74.72243 39024 ft 500 kts 122°
2026-04-26 15:08 23.39761 -74.65545 39026 ft 500 kts 122°
2026-04-26 15:08 23.36538 -74.58883 39024 ft 500 kts 122°
2026-04-26 15:09 23.33284 -74.52190 39020 ft 501 kts 122°
2026-04-26 15:09 23.30036 -74.45497 39018 ft 500 kts 122°
2026-04-26 15:10 23.27332 -74.39935 39017 ft 501 kts 122°
2026-04-26 15:10 23.23539 -74.32154 39014 ft 501 kts 122°
2026-04-26 15:11 23.20271 -74.25462 39014 ft 501 kts 122°
2026-04-26 15:11 23.17011 -74.18768 39013 ft 502 kts 122°
2026-04-26 15:12 23.13734 -74.12067 39013 ft 502 kts 123°
2026-04-26 15:12 23.10450 -74.05376 39011 ft 502 kts 123°
2026-04-26 15:13 23.07187 -73.98727 39014 ft 503 kts 123°
2026-04-26 15:13 23.03896 -73.92031 39015 ft 503 kts 123°
2026-04-26 15:14 23.00595 -73.85327 39011 ft 503 kts 123°
2026-04-26 15:14 22.97297 -73.78633 39013 ft 503 kts 123°
2026-04-26 15:15 22.94008 -73.71976 39012 ft 504 kts 123°
2026-04-26 15:15 22.90704 -73.65281 39014 ft 504 kts 124°
2026-04-26 15:16 22.87393 -73.58575 39012 ft 504 kts 124°
2026-04-26 15:16 22.84079 -73.51870 39006 ft 504 kts 124°
2026-04-26 15:17 22.81317 -73.46299 39010 ft 505 kts 124°
2026-04-26 15:17 22.77445 -73.38522 39007 ft 505 kts 124°
2026-04-26 15:18 22.74109 -73.31824 39008 ft 505 kts 124°
2026-04-26 15:18 22.70780 -73.25118 39007 ft 506 kts 125°
2026-04-26 15:19 22.67435 -73.18410 39012 ft 506 kts 125°
2026-04-26 15:19 22.64112 -73.11753 39011 ft 506 kts 125°
2026-04-26 15:20 22.60763 -73.05045 39011 ft 506 kts 125°
2026-04-26 15:20 22.57414 -72.98342 39010 ft 506 kts 126°
2026-04-26 15:21 22.54052 -72.91649 39011 ft 506 kts 126°
2026-04-26 15:21 22.50689 -72.84948 39007 ft 507 kts 126°
2026-04-26 15:22 22.47351 -72.78292 39013 ft 507 kts 126°
2026-04-26 15:22 22.43980 -72.71592 39011 ft 507 kts 126°
2026-04-26 15:23 22.40597 -72.64893 39009 ft 508 kts 126°
2026-04-26 15:23 22.37216 -72.58196 39015 ft 508 kts 126°
2026-04-26 15:24 22.33834 -72.51487 39013 ft 508 kts 126°
2026-04-26 15:24 22.30468 -72.44828 39015 ft 509 kts 126°
2026-04-26 15:25 22.27649 -72.39255 39012 ft 509 kts 126°
2026-04-26 15:25 22.23679 -72.31424 39014 ft 509 kts 127°
2026-04-26 15:26 22.20275 -72.24726 39011 ft 509 kts 127°
2026-04-26 15:26 22.16893 -72.18076 39011 ft 509 kts 127°
2026-04-26 15:27 22.13490 -72.11385 39006 ft 508 kts 127°
2026-04-26 15:27 22.10084 -72.04703 39003 ft 508 kts 127°
2026-04-26 15:28 22.06675 -71.98035 39003 ft 508 kts 127°
2026-04-26 15:28 22.03266 -71.91354 39005 ft 508 kts 127°
2026-04-26 15:29 21.99877 -71.84735 39003 ft 508 kts 127°
2026-04-26 15:30 21.93050 -71.71423 39007 ft 508 kts 127°
2026-04-26 15:30 21.89638 -71.64774 39010 ft 508 kts 127°
2026-04-26 15:31 21.84511 -71.54792 39013 ft 507 kts 127°
2026-04-26 15:32 21.79933 -71.45917 39012 ft 507 kts 127°
2026-04-26 15:32 21.75951 -71.38210 39010 ft 507 kts 127°
2026-04-26 15:33 21.72533 -71.31589 39010 ft 506 kts 127°
2026-04-26 15:33 21.69154 -71.25056 39009 ft 506 kts 127°
2026-04-26 15:34 21.65731 -71.18448 39011 ft 506 kts 127°
2026-04-26 15:34 21.62312 -71.11850 39012 ft 505 kts 127°
2026-04-26 15:35 21.58892 -71.05254 39010 ft 505 kts 127°
2026-04-26 15:35 21.55148 -70.98968 39007 ft 497 kts 133°
2026-04-26 15:36 21.51267 -70.92886 39009 ft 497 kts 133°
2026-04-26 15:36 21.47373 -70.86769 39011 ft 496 kts 133°
2026-04-26 15:37 21.43483 -70.80657 39015 ft 495 kts 133°
2026-04-26 15:37 21.39600 -70.74565 39015 ft 495 kts 133°
2026-04-26 15:38 21.35708 -70.68475 39011 ft 494 kts 134°
2026-04-26 15:38 21.31830 -70.62400 39010 ft 493 kts 133°
2026-04-26 15:39 21.27957 -70.56333 39011 ft 493 kts 133°
2026-04-26 15:39 21.24735 -70.51301 39006 ft 492 kts 134°
2026-04-26 15:40 21.20238 -70.44284 39006 ft 491 kts 134°
2026-04-26 15:40 21.16367 -70.38245 39006 ft 491 kts 134°
2026-04-26 15:41 21.12499 -70.32228 39008 ft 490 kts 134°
2026-04-26 15:41 21.08628 -70.26220 39012 ft 490 kts 134°
2026-04-26 15:42 21.04771 -70.20217 39011 ft 489 kts 134°
2026-04-26 15:42 21.00910 -70.14215 39009 ft 489 kts 134°
2026-04-26 15:43 20.97044 -70.08234 39005 ft 489 kts 134°
2026-04-26 15:44 20.91242 -69.99268 39005 ft 488 kts 133°
2026-04-26 15:44 20.85482 -69.90346 39007 ft 488 kts 133°
2026-04-26 15:45 20.79685 -69.81404 39007 ft 488 kts 133°
2026-04-26 15:46 20.73879 -69.72466 39007 ft 488 kts 133°
2026-04-26 15:46 20.70660 -69.67519 39002 ft 488 kts 133°
2026-04-26 15:47 20.64207 -69.57600 39011 ft 488 kts 133°
2026-04-26 15:48 20.60358 -69.51684 39012 ft 488 kts 133°
2026-04-26 15:48 20.56487 -69.45735 39014 ft 487 kts 133°
2026-04-26 15:49 20.52610 -69.39797 39011 ft 487 kts 134°
2026-04-26 15:49 20.48759 -69.33912 39010 ft 487 kts 134°
2026-04-26 15:50 20.44884 -69.27990 39013 ft 487 kts 134°
2026-04-26 15:50 20.41009 -69.22069 39011 ft 487 kts 134°
2026-04-26 15:51 20.37129 -69.16156 39012 ft 486 kts 134°
2026-04-26 15:51 20.33256 -69.10253 39013 ft 486 kts 134°
2026-04-26 15:52 20.29398 -69.04394 39014 ft 486 kts 134°
2026-04-26 15:52 20.25521 -68.98500 39017 ft 486 kts 134°
2026-04-26 15:53 20.21645 -68.92610 39020 ft 485 kts 134°
2026-04-26 15:53 20.17777 -68.86731 39018 ft 485 kts 134°
2026-04-26 15:54 20.13907 -68.80859 39017 ft 484 kts 134°
2026-04-26 15:54 20.10060 -68.75036 39017 ft 484 kts 134°
2026-04-26 15:55 20.06213 -68.69164 39016 ft 485 kts 133°
2026-04-26 15:55 20.02497 -68.63161 39015 ft 486 kts 131°
2026-04-26 15:56 19.98837 -68.57110 39019 ft 486 kts 132°
2026-04-26 15:56 19.95148 -68.51099 39016 ft 485 kts 132°
2026-04-26 15:57 19.91428 -68.45126 39012 ft 484 kts 133°
2026-04-26 15:57 19.87707 -68.39157 39010 ft 484 kts 132°
2026-04-26 15:58 19.84022 -68.33232 39008 ft 484 kts 132°
2026-04-26 15:58 19.80304 -68.27275 39009 ft 484 kts 132°
2026-04-26 15:59 19.76585 -68.21313 39010 ft 484 kts 132°
2026-04-26 15:59 19.72868 -68.15345 39011 ft 484 kts 132°
2026-04-26 16:00 19.69150 -68.09381 39013 ft 484 kts 132°
2026-04-26 16:00 19.65433 -68.03420 39012 ft 485 kts 132°
2026-04-26 16:01 19.61735 -67.97505 39017 ft 484 kts 132°
2026-04-26 16:01 19.58003 -67.91554 39013 ft 484 kts 132°
2026-04-26 16:02 19.54273 -67.85616 39018 ft 484 kts 132°
2026-04-26 16:02 19.50547 -67.79667 39015 ft 484 kts 132°
2026-04-26 16:03 19.46845 -67.73757 39020 ft 484 kts 132°
2026-04-26 16:03 19.43112 -67.67824 39028 ft 484 kts 132°
2026-04-26 16:04 19.39383 -67.61896 39019 ft 483 kts 132°
2026-04-26 16:04 19.37516 -67.58932 38871 ft 484 kts 132°
2026-04-26 16:04 19.35649 -67.55969 38635 ft 483 kts 132°
2026-04-26 16:04 19.33785 -67.53013 38362 ft 483 kts 132°
2026-04-26 16:05 19.31941 -67.50093 38095 ft 483 kts 131°
2026-04-26 16:05 19.30075 -67.47132 37830 ft 484 kts 131°
2026-04-26 16:05 19.28209 -67.44169 37572 ft 485 kts 131°
2026-04-26 16:05 19.26336 -67.41199 37312 ft 485 kts 131°
2026-04-26 16:06 19.24456 -67.38221 37058 ft 486 kts 131°
2026-04-26 16:06 19.22575 -67.35243 36804 ft 486 kts 131°
2026-04-26 16:06 19.20695 -67.32266 36551 ft 487 kts 131°
2026-04-26 16:06 19.18816 -67.29292 36307 ft 487 kts 131°
2026-04-26 16:07 19.16956 -67.26347 36064 ft 488 kts 130°
2026-04-26 16:07 19.15070 -67.23365 35683 ft 488 kts 130°
2026-04-26 16:07 19.13182 -67.20387 35064 ft 488 kts 130°
2026-04-26 16:07 19.11286 -67.17402 34422 ft 489 kts 130°
2026-04-26 16:08 19.09390 -67.14417 33753 ft 489 kts 130°
2026-04-26 16:08 19.08135 -67.12440 33277 ft 490 kts 129°
2026-04-26 16:08 19.05587 -67.08433 32337 ft 492 kts 129°
2026-04-26 16:08 19.03678 -67.05426 31653 ft 494 kts 129°
2026-04-26 16:09 19.01761 -67.02404 31186 ft 496 kts 129°
2026-04-26 16:09 18.99837 -66.99371 30981 ft 498 kts 129°
2026-04-26 16:09 18.97908 -66.96332 31009 ft 499 kts 129°
2026-04-26 16:10 18.94033 -66.90241 31007 ft 499 kts 129°
2026-04-26 16:10 18.90152 -66.84156 31008 ft 499 kts 129°
2026-04-26 16:11 18.86300 -66.78112 31005 ft 499 kts 129°
2026-04-26 16:11 18.84365 -66.75073 30894 ft 498 kts 129°
2026-04-26 16:11 18.82448 -66.72065 30411 ft 491 kts 129°
2026-04-26 16:11 18.80548 -66.69085 29799 ft 487 kts 128°
2026-04-26 16:12 18.78699 -66.66108 29167 ft 484 kts 124°
2026-04-26 16:12 18.77201 -66.62927 28574 ft 484 kts 116°
2026-04-26 16:12 18.75598 -66.56081 27445 ft 481 kts 98°
2026-04-26 16:13 18.75362 -66.52573 26890 ft 477 kts 96°
2026-04-26 16:13 18.75136 -66.49098 26347 ft 472 kts 96°
2026-04-26 16:13 18.74908 -66.45710 25828 ft 467 kts 96°
2026-04-26 16:13 18.74676 -66.42312 25303 ft 463 kts 97°
2026-04-26 16:14 18.74443 -66.38943 24790 ft 458 kts 97°
2026-04-26 16:14 18.74211 -66.35603 24288 ft 454 kts 97°
2026-04-26 16:14 18.73757 -66.29024 23302 ft 446 kts 97°
2026-04-26 16:15 18.73535 -66.25773 22773 ft 442 kts 96°
2026-04-26 16:15 18.73316 -66.22554 22276 ft 439 kts 96°
2026-04-26 16:15 18.73099 -66.19360 21806 ft 435 kts 96°
2026-04-26 16:16 18.72667 -66.13072 20922 ft 429 kts 96°
2026-04-26 16:16 18.72451 -66.09950 20482 ft 426 kts 96°
2026-04-26 16:16 18.72234 -66.06841 20048 ft 423 kts 96°
2026-04-26 16:16 18.72020 -66.03760 19609 ft 420 kts 96°
2026-04-26 16:17 18.71806 -66.00695 19181 ft 417 kts 96°
2026-04-26 16:17 18.71595 -65.97651 18757 ft 414 kts 96°
2026-04-26 16:17 18.71387 -65.94631 18341 ft 411 kts 96°
2026-04-26 16:17 18.71177 -65.91634 17860 ft 409 kts 96°
2026-04-26 16:18 18.70970 -65.88657 17389 ft 405 kts 96°
2026-04-26 16:18 18.70558 -65.82780 16478 ft 398 kts 96°
2026-04-26 16:19 18.70140 -65.77035 15610 ft 392 kts 96°
2026-04-26 16:19 18.69933 -65.74178 15179 ft 389 kts 96°
2026-04-26 16:19 18.69604 -65.69476 14480 ft 384 kts 96°
2026-04-26 16:20 18.69347 -65.65732 13907 ft 380 kts 96°
2026-04-26 16:20 18.68811 -65.60261 12816 ft 370 kts 108°
2026-04-26 16:20 18.68158 -65.58618 12443 ft 363 kts 122°
2026-04-26 16:21 18.66822 -65.56393 11824 ft 358 kts 127°
2026-04-26 16:21 18.65216 -65.54420 11208 ft 352 kts 136°
2026-04-26 16:21 18.63511 -65.52588 10576 ft 348 kts 137°
2026-04-26 16:21 18.61830 -65.50806 10295 ft 334 kts 137°
2026-04-26 16:22 18.60236 -65.49119 10221 ft 315 kts 137°
2026-04-26 16:22 18.58721 -65.47516 10088 ft 304 kts 137°
2026-04-26 16:22 18.57239 -65.45951 9813 ft 299 kts 137°
2026-04-26 16:22 18.55772 -65.44404 9468 ft 297 kts 137°
2026-04-26 16:23 18.54318 -65.42872 9111 ft 295 kts 137°
2026-04-26 16:23 18.52875 -65.41351 8758 ft 292 kts 137°
2026-04-26 16:23 18.51465 -65.39862 8331 ft 289 kts 137°
2026-04-26 16:23 18.50059 -65.38372 7921 ft 285 kts 137°
2026-04-26 16:24 18.48673 -65.36901 7513 ft 280 kts 137°
2026-04-26 16:24 18.47310 -65.35455 7110 ft 276 kts 137°
2026-04-26 16:24 18.45967 -65.34030 6715 ft 272 kts 137°
2026-04-26 16:24 18.44641 -65.32622 6313 ft 268 kts 137°
2026-04-26 16:25 18.43339 -65.31236 5899 ft 264 kts 137°
2026-04-26 16:25 18.42060 -65.29878 5529 ft 259 kts 137°
2026-04-26 16:25 18.40854 -65.28500 5175 ft 254 kts 129°
2026-04-26 16:25 18.39846 -65.26990 4858 ft 249 kts 126°
2026-04-26 16:26 18.38907 -65.25510 4545 ft 245 kts 126°
2026-04-26 16:26 18.37964 -65.24021 4226 ft 244 kts 126°
2026-04-26 16:26 18.37025 -65.22536 3905 ft 243 kts 126°
2026-04-26 16:26 18.36095 -65.21065 3620 ft 240 kts 126°
2026-04-26 16:27 18.35170 -65.19613 3376 ft 236 kts 126°
2026-04-26 16:27 18.34272 -65.18200 3179 ft 229 kts 126°
2026-04-26 16:27 18.33411 -65.16813 3006 ft 223 kts 121°
2026-04-26 16:27 18.32974 -65.15268 2851 ft 221 kts 96°
2026-04-26 16:28 18.33018 -65.13695 2746 ft 213 kts 89°
2026-04-26 16:28 18.33090 -65.12155 2552 ft 209 kts 90°
2026-04-26 16:28 18.33156 -65.10662 2284 ft 198 kts 90°
2026-04-26 16:28 18.33208 -65.09476 2072 ft 190 kts 90°
2026-04-26 16:29 18.33268 -65.08128 1848 ft 177 kts 91°
2026-04-26 16:29 18.33320 -65.06921 1622 ft 154 kts 91°
2026-04-26 16:29 18.33367 -65.05842 1435 ft 142 kts 90°
2026-04-26 16:29 18.33408 -65.04848 1253 ft 138 kts 90°
2026-04-26 16:30 18.33457 -65.03850 1100 ft 135 kts 91°
2026-04-26 16:30 18.33510 -65.02867 906 ft 134 kts 90°
2026-04-26 16:30 18.33552 -65.01895 714 ft 131 kts 91°
2026-04-26 16:30 18.33592 -65.00932 576 ft 132 kts 93°
2026-04-26 16:31 18.33617 -64.99973 361 ft 130 kts 93°
2026-04-26 16:31 18.33657 -64.99018 217 ft 131 kts 90°
2026-04-26 16:31 18.33699 -64.98064 43 ft 127 kts 90°
2026-04-26 16:31 18.33729 -64.97329 27 ft 71 kts 87°
2026-04-26 16:32 18.33747 -64.96985 21 ft 28 kts 87°
2026-04-26 16:32 18.33753 -64.96780 17 ft 24 kts 89°
2026-04-26 16:32 18.33719 -64.96689 17 ft 12 kts 162°
2026-04-26 16:32 18.33673 -64.96730 18 ft 10 kts 268°
2026-04-26 16:33 18.33671 -64.96810 19 ft 12 kts 266°
2026-04-26 16:33 18.33666 -64.96905 20 ft 15 kts 267°
2026-04-26 16:33 18.33661 -64.97019 21 ft 15 kts 268°
2026-04-26 16:33 18.33657 -64.97119 23 ft 12 kts 267°
2026-04-26 16:34 18.33653 -64.97199 24 ft 10 kts 266°
2026-04-26 16:34 18.33650 -64.97270 24 ft 10 kts 267°
2026-04-26 16:34 18.33646 -64.97331 25 ft 7 kts 265°
2026-04-26 16:34 18.33634 -64.97386 27 ft 9 kts 243°
2026-04-26 16:35 18.33570 -64.97400 25 ft 12 kts 178°
2026-04-26 16:35 18.33490 -64.97395 25 ft 10 kts 168°
2026-04-26 16:35 18.33447 -64.97361 26 ft 6 kts 122°
2026-04-26 16:35 18.33447 -64.97343 24 ft 0 kts 76°
2026-04-26 16:36 18.33454 -64.97332 24 ft 4 kts 52°
2026-04-26 16:36 18.33479 -64.97306 25 ft 4 kts 45°
2026-04-26 16:36 18.33481 -64.97303 25 ft 0 kts 45°